Change the Weather History Date:

Thursday, April 18, 2013

  Actual Average Record
Temperature  
Mean Temperature 49 °F 51 °F  
Max Temperature 62 °F 62 °F 95 °F (1976)
Min Temperature 36 °F 39 °F 24 °F (1962)
Degree Days  
Heating Degree Days 16 15  
Month to date heating degree days 324 324  
Since 1 July heating degree days 5336 5605  
Cooling Degree Days 0 0  
Month to date cooling degree days 0 0  
Year to date cooling degree days 0 0  
Moisture  
Dew Point 32 °F    
Average Humidity 55    
Maximum Humidity 82    
Minimum Humidity 27    
Precipitation  
Precipitation 0.00 in 0.11 in 0.95 in (1924)
Month to date precipitation 0.94 2.25  
Year to date precipitation 9.05 11.99  
Snow  
Snow 0.00 in 0.00 in 1.70 in (1965)
Month to date snowfall 0.0 1.2  
Since 1 July snowfall 56.9 40.3  
Snow Depth 0.00 in    
Sea Level Pressure  
Sea Level Pressure 30.30 in    
Wind  
Wind Speed 10 mph (South)    
Max Wind Speed 24 mph    
Max Gust Speed 29 mph    
Visibility 10 miles    
Events      
T = Trace of Precipitation, MM = Missing Value Source: NWS Daily Summary

Daily Weather History Graph

Daily Weather History Graph

Search for Another Location

Airport or City:

Trip Planner

Search our weather history database for the weather conditions in past years. The results will help you decide how hot, cold, wet, or windy it might be!

Date:

Astronomy

Apr. 18, 2013 Rise Set
Actual Time 6:05 AM EDT 7:35 PM EDT
Civil Twilight 5:36 AM EDT 8:04 PM EDT
Nautical Twilight 5:00 AM EDT 8:40 PM EDT
Astronomical Twilight 4:23 AM EDT 9:17 PM EDT
Moon 12:13 PM EDT (4/18) 1:49 AM EDT (4/18)
Length of Visible Light 14h 28m
Length of Day
13h 30m
First Quarter, 51% of the Moon is Illuminated
Apr 18
First Quarter
Apr 25
Full
May 2
Last Quarter
May 9
New
May 18
First Quarter

Hourly Weather History & Observations

Time (EDT) Temp. Windchill Dew Point Humidity Pressure Visibility Wind Dir Wind Speed Gust Speed Precip Events Conditions
12:51 AM 46.0 °F 43.9 °F 28.0 °F 50% 30.35 in 10.0 mi North 4.6 mph - N/A   Clear
1:51 AM 46.9 °F - 28.0 °F 48% 30.34 in 10.0 mi Calm Calm - N/A   Clear
2:51 AM 41.0 °F - 30.0 °F 65% 30.34 in 10.0 mi Calm Calm - N/A   Clear
3:51 AM 42.1 °F - 28.9 °F 60% 30.36 in 10.0 mi Calm Calm - N/A   Clear
4:51 AM 37.0 °F - 30.0 °F 76% 30.37 in 10.0 mi Calm Calm - N/A   Clear
5:51 AM 37.9 °F - 30.0 °F 73% 30.37 in 10.0 mi Calm Calm - N/A   Partly Cloudy
6:51 AM 37.9 °F 35.5 °F 32.0 °F 79% 30.38 in 10.0 mi NNW 3.5 mph - 0.06 in   Scattered Clouds
7:51 AM 46.0 °F 43.1 °F 33.1 °F 61% 30.40 in 10.0 mi North 5.8 mph - N/A   Scattered Clouds
8:51 AM 50.0 °F - 35.1 °F 57% 30.38 in 10.0 mi North 3.5 mph - N/A   Scattered Clouds
9:51 AM 55.0 °F - 34.0 °F 45% 30.37 in 10.0 mi ESE 6.9 mph - N/A   Mostly Cloudy
10:51 AM 61.0 °F - 30.0 °F 31% 30.36 in 10.0 mi South 13.8 mph - 0.01 in   Mostly Cloudy
11:51 AM 61.0 °F - 28.9 °F 30% 30.35 in 10.0 mi South 13.8 mph 23.0 mph N/A   Overcast
12:51 PM 61.0 °F - 26.1 °F 26% 30.32 in 10.0 mi South 15.0 mph 23.0 mph N/A   Overcast
1:51 PM 61.0 °F - 26.1 °F 26% 30.30 in 10.0 mi South 19.6 mph 25.3 mph N/A   Overcast
2:51 PM 59.0 °F - 27.0 °F 29% 30.29 in 10.0 mi South 20.7 mph - N/A   Overcast
3:51 PM 59.0 °F - 28.0 °F 31% 30.27 in 10.0 mi South 15.0 mph 25.3 mph N/A   Overcast
4:51 PM 59.0 °F - 28.0 °F 31% 30.25 in 10.0 mi South 17.3 mph 25.3 mph N/A   Overcast
5:51 PM 55.9 °F - 30.9 °F 39% 30.23 in 10.0 mi South 18.4 mph 23.0 mph N/A   Mostly Cloudy
6:51 PM 55.0 °F - 35.1 °F 47% 30.23 in 10.0 mi South 17.3 mph 20.7 mph N/A   Overcast
7:51 PM 54.0 °F - 39.0 °F 57% 30.22 in 10.0 mi South 13.8 mph - N/A   Overcast
8:51 PM 53.1 °F - 41.0 °F 64% 30.20 in 10.0 mi SSE 12.7 mph - N/A   Overcast
9:51 PM 52.0 °F - 43.0 °F 71% 30.18 in 10.0 mi South 13.8 mph - N/A   Overcast
10:51 PM 52.0 °F - 44.1 °F 74% 30.15 in 10.0 mi South 9.2 mph - N/A   Overcast
11:51 PM 53.1 °F - 46.0 °F 77% 30.13 in 10.0 mi SSW 11.5 mph - N/A   Overcast